STARLINK-34267

Satellite information

Favourite Embed

Satellite Type and Status

PAYLOADIN ORBIT

Key statistics

Satellite STARLINK-34267 at a glance.

Uptime

27

Days in orbit

Revolutions

≈ 15.5

Per day

Orbit

LEO

Low Earth Orbit

Inclination

53.2

Latest

Satellite identification and parameters

Extended collection of information and parameters for STARLINK-34267.

Object identification

Identified? True

Debris? False

Object name: STARLINK-34267

International designator: 2025-167C

Object number (NORAD): 65080

Object ID (CCSDS): 65080

Country: UNITED STATES OF AMERICA (US)

Current information (Y/N): Y

RCS size: LARGE

Orbital parameters

Period: 92.95 minutes

Inclination: 53.1591 deg

SMA: 6797.167 km

Apoapsis: 419.827 km

Periapsis: 418.237 km

RAAN: 196.8263 deg

Eccentricy: 0.00011696

Argument of periapsis: 139.2328 deg

Mean anomaly: 281.7005 deg

Mean motion: 15.4921199 rev/day

Mean motion (dot): 0.00091609 rev/day2

B* drag term: 0.001641516 1/REarth

Two-line elements (TLE)

Creation date: Aug. 31, 2025, 2:26 a.m.

Reference frame: TEME

Reference center: EARTH

Epoch: Aug. 30, 2025, 10 p.m. UTC

TLE line 0: 0 STARLINK-34267

TLE line 1: 1 65080U 25167C 25242.91668981 .00091609 00000-0 16415-2 0 9997

TLE line 2: 2 65080 53.1591 196.8263 0001170 139.2328 281.7005 15.49211990 5501

Live tracking on map

Real-time ground track for satellite STARLINK-34267.

In-orbit conjunctions

There are no conjunctions computed for STARLINK-34267, at the moment. Check back to stay up to date, as we update our databases every day.

Go to all conjunctions

Associated space launch

A batch of 28 satellites for the Starlink mega-constellation - SpaceX's project for space-based Internet communication system.

STARLINK-34267 was lifted into orbit during the mission ‘Falcon 9 Block 5 | Starlink Group 10-30’, on board a Falcon 9 space rocket.

The launch took place on Aug. 4, 2025, 7:57 a.m. from Space Launch Complex 40.

For more information about the launch, click the button.

Launch to space Falcon 9 Block 5 | Starlink Group 10-30
Falcon 9 Block 5 | Starlink Group 10-30

Agency: SpaceX

Status: Launch Successful

Launch date: Aug. 4, 2025, 7:57 a.m. UTC

Rocket: Falcon 9

Launch pad: Space Launch Complex 40

Location: Cape Canaveral SFS, FL, USA

...

Latest news about this satellite

News about space launch
Live coverage: Starlink mission marks SpaceX’s 450th flight-proven Falcon booster launch

The Starlink 10-30 mission will add 28 more satellites to SpaceX’s low Earth orbit megaconstellation. Liftoff of the Falcon 9 rocket from pad 40 at Cape Canaveral Space Force Station is set for 1:03 a.m. EDT (0503 UTC) on Monday.


Newsletter sign-up

Weekly statistics, charts and insights to help you stay on top of the space industry.